KT2UU-13 Weather Reports


time (UTC)temp
C
wind
direction
speed
KPH
gust
KPH
rain 1hr
cm
rain 24hr
cm
rain mn
cm
humidity
%
barometer
mb
20260510004840 20 163 0.0 0.0 0.00 0.00 0.00 84 1013.8
20260510004338 20 163 0.0 0.0 0.00 0.00 0.00 82 1013.8
20260510003836 20 167 0.0 0.0 0.00 0.00 0.00 81 1013.7
20260510003332 20 163 0.0 0.0 0.00 0.00 0.00 81 1013.8
20260510002831 20 163 0.0 0.0 0.00 0.00 0.00 81 1013.5
20260510002328 20 163 0.0 0.0 0.00 0.00 0.00 81 1013.5
20260510001825 20 163 0.0 0.0 0.00 0.00 0.00 81 1013.5
20260510001323 20 163 0.0 0.0 0.00 0.00 0.00 81 1013.5
20260510000819 20 163 0.0 0.0 0.00 0.00 0.00 79 1013.4
20260510000318 21 163 0.0 0.0 0.00 0.00 0.00 78 1013.2
20260509235813 21 163 0.0 0.0 0.00 0.00 0.00 77 1013.2
20260509235310 21 163 0.0 0.0 0.00 0.00 0.00 77 1013.1
20260509234805 21 163 0.0 0.0 0.00 0.00 0.00 75 1013.0
20260509234302 21 163 0.0 0.0 0.00 0.00 0.00 75 1013.1
20260509233801 21 167 0.0 1.6 0.00 0.00 0.00 73 1013.2
20260509233258 21 163 1.6 1.6 0.00 0.00 0.00 72 1013.0
20260509232754 22 158 0.0 1.6 0.00 0.00 0.00 72 1012.9
20260509232251 22 204 1.6 3.2 0.00 0.00 0.00 71 1012.8
20260509231747 22 167 0.0 3.2 0.00 0.00 0.00 71 1012.8
20260509231244 22 194 3.2 4.8 0.00 0.00 0.00 71 1012.7
20260509230742 22 187 0.0 0.0 0.00 0.00 0.00 71 1012.8
20260509230239 23 219 0.0 0.0 0.00 0.00 0.00 72 1012.7
20260509225734 23 241 0.0 0.0 0.00 0.00 0.00 71 1012.9
20260509225230 22 139 0.0 3.2 0.00 0.00 0.00 68 1012.5
20260509224726 22 192 0.0 0.0 0.00 0.00 0.00 69 1012.7
20260509224224 22 192 0.0 0.0 0.00 0.00 0.00 68 1012.4
20260509223720 22 192 0.0 1.6 0.00 0.00 0.00 70 1012.8
20260509223217 22 200 0.0 3.2 0.00 0.00 0.00 69 1012.8
20260509222714 23 190 0.0 1.6 0.00 0.00 0.00 70 1012.5
20260509222209 23 200 0.0 4.8 0.00 0.00 0.00 68 1012.6
20260509221705 23 169 4.8 6.4 0.00 0.00 0.00 66 1012.4
20260509221201 23 230 1.6 4.8 0.00 0.00 0.00 67 1012.5
20260509220658 23 184 1.6 3.2 0.00 0.00 0.00 69 1012.5
20260509220154 24 186 0.0 3.2 0.00 0.00 0.00 66 1012.5
20260509215650 23 216 0.0 0.0 0.00 0.00 0.00 68 1012.4
20260509215147 23 174 0.0 0.0 0.00 0.00 0.00 69 1012.6
20260509214644 23 174 0.0 0.0 0.00 0.00 0.00 68 1012.2
20260509214141 23 174 0.0 0.0 0.00 0.00 0.00 69 1012.6
20260509213637 23 174 1.6 3.2 0.00 0.00 0.00 69 1012.6
20260509213133 23 195 3.2 3.2 0.00 0.00 0.00 72 1012.3
20260509212631 23 195 1.6 3.2 0.00 0.00 0.00 71 1012.4
20260509212127 23 194 0.0 1.6 0.00 0.00 0.00 70 1012.5
20260509211623 23 196 0.0 6.4 0.00 0.00 0.00 69 1012.5
20260509211120 23 186 1.6 3.2 0.00 0.00 0.00 69 1012.6
20260509210617 23 231 3.2 6.4 0.00 0.00 0.00 66 1012.5
20260509210114 23 326 0.0 0.0 0.00 0.00 0.00 68 1012.6
20260509205608 23 326 0.0 0.0 0.00 0.00 0.00 71 1012.5
20260509205103 23 176 1.6 3.2 0.00 0.00 0.00 70 1012.6
20260509204600 22 174 0.0 0.0 0.00 0.00 0.00 71 1012.4
20260509204057 23 174 0.0 1.6 0.00 0.00 0.00 69 1012.4
20260509203552 22 172 1.6 1.6 0.00 0.00 0.00 71 1012.8
20260509203050 23 184 1.6 4.8 0.00 0.00 0.00 68 1012.9
20260509202545 23 194 1.6 6.4 0.00 0.00 0.00 69 1012.9
20260509202041 23 209 0.0 3.2 0.00 0.00 0.00 69 1012.9
20260509201536 23 277 1.6 4.8 0.00 0.00 0.00 71 1012.8
20260509201034 22 166 0.0 1.6 0.00 0.00 0.00 72 1012.6
20260509200527 22 166 0.0 1.6 0.00 0.00 0.00 72 1012.7
20260509200025 22 204 0.0 1.6 0.00 0.00 0.00 71 1012.6
20260509195520 22 211 3.2 3.2 0.00 0.00 0.00 69 1012.4
20260509195020 22 166 3.2 4.8 0.00 0.00 0.00 70 1012.7
20260509194515 22 191 3.2 6.4 0.00 0.00 0.00 71 1012.7
20260509194013 22 169 0.0 0.0 0.00 0.00 0.00 71 1012.9
20260509193513 22 165 0.0 3.2 0.00 0.00 0.00 71 1012.6
20260509193010 22 183 1.6 3.2 0.00 0.00 0.00 70 1012.9
20260509192506 22 143 0.0 0.0 0.00 0.00 0.00 70 1013.0
20260509192001 22 251 0.0 3.2 0.00 0.00 0.00 71 1013.0
20260509191456 22 194 3.2 4.8 0.00 0.00 0.00 72 1012.9
20260509190952 22 159 1.6 3.2 0.00 0.00 0.00 72 1013.1
20260509190449 21 159 1.6 3.2 0.00 0.00 0.00 72 1013.0
20260509185947 21 151 3.2 6.4 0.00 0.00 0.00 73 1012.9
20260509185444 21 142 1.6 4.8 0.00 0.00 0.00 73 1013.0
20260509184940 22 112 0.0 1.6 0.00 0.00 0.00 73 1013.0
20260509184439 21 359 1.6 1.6 0.00 0.00 0.00 73 1013.3
20260509183935 21 107 0.0 0.0 0.00 0.00 0.00 73 1013.4
20260509183429 21 112 0.0 3.2 0.00 0.00 0.00 73 1013.3
20260509182926 21 187 0.0 1.6 0.00 0.00 0.00 75 1013.5
20260509182422 21 118 0.0 1.6 0.00 0.00 0.00 74 1013.4
20260509181920 21 108 0.0 4.8 0.00 0.00 0.00 75 1013.1
20260509181418 21 186 1.6 4.8 0.00 0.00 0.00 74 1013.2
20260509180914 20 129 0.0 3.2 0.00 0.00 0.00 75 1013.3
20260509180409 21 40 0.0 0.0 0.00 0.00 0.00 77 1013.5
20260509175907 21 355 1.6 3.2 0.00 0.00 0.00 76 1013.1
20260509175403 20 119 0.0 4.8 0.00 0.00 0.00 76 1013.4
20260509174859 21 357 0.0 1.6 0.00 0.00 0.00 77 1013.4
20260509174356 20 2 0.0 0.0 0.00 0.00 0.00 79 1013.4
20260509173851 20 358 1.6 3.2 0.00 0.00 0.00 78 1013.4
20260509173341 19 359 0.0 4.8 0.00 0.00 0.00 79 1013.1
20260509172838 19 358 0.0 1.6 0.00 0.00 0.00 78 1013.3
20260509172334 20 359 3.2 3.2 0.00 0.00 0.00 77 1013.1
20260509171830 19 223 1.6 3.2 0.00 0.00 0.00 78 1013.3
20260509171326 20 195 1.6 3.2 0.00 0.00 0.00 78 1013.4
20260509170823 20 195 0.0 0.0 0.00 0.00 0.00 80 1013.6
20260509170319 20 137 3.2 3.2 0.00 0.00 0.00 79 1013.6
20260509165818 20 274 0.0 3.2 0.00 0.00 0.00 79 1013.6
20260509165313 19 199 0.0 3.2 0.00 0.00 0.00 82 1013.7
20260509164809 19 231 4.8 6.4 0.00 0.00 0.00 80 1013.9
20260509164300 18 155 0.0 3.2 0.00 0.00 0.00 82 1013.8
20260509163756 18 243 3.2 6.4 0.00 0.00 0.00 83 1014.0
20260509163253 19 105 1.6 3.2 0.00 0.00 0.00 83 1014.3
20260509162752 18 158 0.0 1.6 0.00 0.00 0.00 86 1014.0
20260509162245 18 191 4.8 11.3 0.00 0.00 0.00 83 1014.3
20260509161741 18 175 0.0 4.8 0.00 0.00 0.00 86 1014.0
20260509161232 18 114 0.0 0.0 0.00 0.00 0.00 87 1014.1
20260509160727 18 228 0.0 1.6 0.00 0.00 0.00 87 1014.0
20260509160224 17 248 0.0 1.6 0.00 0.00 0.00 89 1013.9
20260509155719 17 148 1.6 3.2 0.00 0.00 0.00 89 1013.9
20260509155216 17 164 0.0 1.6 0.00 0.00 0.00 91 1014.0
20260509154712 17 169 3.2 6.4 0.00 0.00 0.00 90 1014.1
20260509154209 17 141 1.6 3.2 0.00 0.00 0.00 92 1014.3
20260509153706 17 135 0.0 1.6 0.00 0.00 0.00 92 1014.3
20260509153202 17 152 1.6 1.6 0.00 0.00 0.00 92 1014.3
20260509152658 16 211 1.6 3.2 0.00 0.00 0.00 93 1014.3
20260509152155 16 179 1.6 6.4 0.00 0.00 0.00 93 1014.4
20260509151652 16 138 1.6 3.2 0.00 0.00 0.00 93 1014.3
20260509151149 16 178 1.6 3.2 0.00 0.00 0.00 93 1014.6
20260509150647 16 160 0.0 1.6 0.00 0.00 0.00 93 1014.7
20260509150145 16 191 3.2 4.8 0.00 0.00 0.00 93 1014.5
20260509145641 16 197 0.0 0.0 0.00 0.00 0.00 94 1014.5
20260509145136 16 154 0.0 1.6 0.00 0.00 0.00 94 1014.6
20260509144633 16 193 4.8 4.8 0.00 0.00 0.00 94 1014.4
20260509144131 16 188 0.0 3.2 0.00 0.00 0.00 94 1014.4
20260509143628 16 154 0.0 1.6 0.00 0.00 0.00 95 1014.5
20260509143125 16 167 0.0 1.6 0.00 0.00 0.00 94 1014.3
20260509142620 16 195 0.0 0.0 0.00 0.00 0.00 93 1014.2
20260509142117 16 195 0.0 3.2 0.00 0.00 0.00 94 1014.0
20260509141613 16 195 0.0 0.0 0.00 0.00 0.00 93 1013.9
20260509141109 16 195 0.0 0.0 0.00 0.00 0.00 94 1013.7
20260509140607 16 195 0.0 1.6 0.00 0.00 0.00 93 1013.8
20260509140105 16 195 0.0 1.6 0.00 0.00 0.00 94 1013.4
20260509135601 16 137 0.0 1.6 0.00 0.00 0.00 93 1013.4
20260509135059 16 168 0.0 0.0 0.00 0.00 0.00 93 1013.5
20260509134556 16 198 0.0 0.0 0.00 0.00 0.00 93 1013.4
20260509134053 16 198 0.0 0.0 0.00 0.00 0.00 93 1013.3
20260509133550 16 225 1.6 3.2 0.00 0.00 0.00 92 1013.4
20260509133048 16 186 0.0 0.0 0.00 0.00 0.00 93 1013.3
20260509132546 15 203 0.0 0.0 0.00 0.00 0.00 93 1013.3
20260509132044 15 204 0.0 1.6 0.00 0.00 0.00 93 1013.4
20260509131539 15 146 0.0 0.0 0.00 0.00 0.00 94 1013.5
20260509131036 15 178 0.0 0.0 0.00 0.00 0.00 94 1013.3
20260509130531 15 179 0.0 0.0 0.00 0.00 0.00 95 1013.3
20260509130024 15 185 0.0 0.0 0.00 0.00 0.00 95 1013.4
20260509125520 15 209 0.0 0.0 0.00 0.00 0.00 96 1013.3
20260509125016 15 227 0.0 0.0 0.00 0.00 0.00 96 1013.4
20260509124513 15 353 0.0 0.0 0.00 0.00 0.00 96 1013.4
20260509124011 15 353 0.0 0.0 0.00 0.00 0.00 96 1013.3
20260509123508 15 353 0.0 0.0 0.00 0.00 0.00 96 1013.3
20260509123004 15 353 0.0 0.0 0.00 0.00 0.00 96 1013.4
20260509122501 15 353 0.0 0.0 0.00 0.00 0.00 96 1013.2
20260509121958 15 353 0.0 0.0 0.00 0.00 0.00 96 1013.4
20260509121454 15 353 0.0 0.0 0.00 0.00 0.00 96 1013.2
20260509120952 14 359 0.0 0.0 0.00 0.00 0.00 96 1013.0
20260509120450 14 353 0.0 0.0 0.00 0.00 0.00 96 1013.2
20260509115948 14 353 0.0 0.0 0.00 0.00 0.00 97 1013.1
20260509115445 14 353 0.0 0.0 0.00 0.00 0.00 97 1012.9
20260509114942 14 359 0.0 0.0 0.00 0.00 0.00 97 1013.0
20260509114441 14 353 0.0 0.0 0.00 0.00 0.00 98 1012.8
20260509113940 13 353 0.0 0.0 0.00 0.00 0.00 98 1012.8
20260509113437 13 353 0.0 0.0 0.00 0.00 0.00 98 1013.0
20260509112933 13 353 0.0 0.0 0.00 0.00 0.00 98 1012.9
20260509112431 13 353 0.0 0.0 0.00 0.00 0.00 98 1013.0
20260509111927 13 353 0.0 0.0 0.00 0.00 0.00 98 1013.0
20260509111425 13 353 0.0 0.0 0.00 0.00 0.00 98 1012.7
20260509110922 13 353 0.0 0.0 0.00 0.00 0.00 98 1012.6
20260509110418 13 353 0.0 0.0 0.00 0.00 0.00 98 1012.8
20260509105916 13 353 0.0 0.0 0.00 0.00 0.00 98 1012.8
20260509105415 13 353 0.0 0.0 0.00 0.00 0.00 98 1012.8
20260509104911 13 353 0.0 0.0 0.00 0.00 0.00 98 1012.8
20260509104408 13 353 0.0 0.0 0.00 0.00 0.00 98 1012.8
20260509103906 13 353 0.0 0.0 0.00 0.00 0.00 99 1012.8
20260509103402 13 353 0.0 0.0 0.00 0.00 0.00 99 1012.8
20260509102901 13 353 0.0 0.0 0.00 0.00 0.00 99 1013.1
20260509102358 12 353 0.0 0.0 0.00 0.00 0.00 99 1012.9
20260509101854 12 353 0.0 0.0 0.00 0.00 0.00 99 1012.8
20260509101350 12 353 0.0 0.0 0.00 0.00 0.00 99 1012.6
20260509100848 12 353 0.0 0.0 0.00 0.00 0.00 99 1012.7
20260509100345 12 353 0.0 0.0 0.00 0.00 0.00 99 1012.6
20260509095841 12 353 0.0 0.0 0.00 0.00 0.00 99 1013.1
20260509095339 12 353 0.0 0.0 0.00 0.00 0.00 99 1012.9
20260509094836 12 353 0.0 0.0 0.00 0.00 0.00 99 1013.1
20260509094332 12 353 0.0 0.0 0.00 0.00 0.00 99 1013.0
20260509093830 12 353 0.0 0.0 0.00 0.00 0.00 99 1013.0
20260509093327 12 353 0.0 0.0 0.00 0.00 0.00 99 1013.1
20260509092826 12 353 0.0 0.0 0.00 0.00 0.00 99 1013.1
20260509092323 12 353 0.0 0.0 0.00 0.00 0.00 99 1013.1
20260509091821 12 353 0.0 0.0 0.00 0.00 0.00 99 1013.3
20260509091318 12 353 0.0 0.0 0.00 0.00 0.00 99 1013.2
20260509090815 12 353 0.0 1.6 0.00 0.00 0.00 99 1012.8
20260509090312 12 307 0.0 1.6 0.00 0.00 0.00 99 1013.0
20260509085809 12 187 0.0 0.0 0.00 0.00 0.00 99 1013.2
20260509085307 12 187 0.0 0.0 0.00 0.00 0.00 99 1013.1
20260509084803 12 187 0.0 0.0 0.00 0.00 0.00 99 1013.2
20260509084300 12 174 0.0 0.0 0.00 0.00 0.00 99 1013.1
20260509083758 12 171 0.0 0.0 0.00 0.00 0.00 98 1012.7
20260509083254 12 151 0.0 0.0 0.00 0.00 0.00 98 1012.8
20260509082751 12 151 0.0 0.0 0.00 0.00 0.00 99 1012.8
20260509082247 12 151 0.0 0.0 0.00 0.00 0.00 99 1012.7
20260509081744 12 223 0.0 0.0 0.00 0.00 0.00 99 1012.6
20260509081242 12 223 0.0 0.0 0.00 0.00 0.00 99 1012.6
20260509080740 12 223 0.0 0.0 0.00 0.00 0.00 99 1013.0
20260509080237 12 224 0.0 0.0 0.00 0.00 0.00 99 1013.1
20260509075736 12 224 0.0 0.0 0.00 0.00 0.00 99 1013.2
20260509075233 11 224 0.0 0.0 0.00 0.00 0.00 99 1013.3
20260509074729 12 224 0.0 0.0 0.00 0.00 0.00 99 1013.1
20260509074227 12 224 0.0 0.0 0.00 0.00 0.00 99 1013.0
20260509073723 11 224 0.0 0.0 0.00 0.00 0.00 99 1013.1
20260509073220 11 224 0.0 0.0 0.00 0.00 0.00 99 1013.0
20260509072716 12 224 0.0 0.0 0.00 0.00 0.00 99 1012.8
20260509072213 12 224 0.0 0.0 0.00 0.00 0.00 99 1012.8
20260509071710 12 224 0.0 0.0 0.00 0.00 0.00 99 1012.9
20260509071207 11 224 0.0 0.0 0.00 0.00 0.00 99 1013.3
20260509070704 11 224 0.0 0.0 0.00 0.00 0.00 99 1013.2
20260509070200 11 224 0.0 0.0 0.00 0.00 0.00 99 1013.1
20260509065656 11 264 0.0 0.0 0.00 0.00 0.00 99 1013.2
20260509065153 11 264 0.0 0.0 0.00 0.00 0.00 99 1013.0
20260509064650 11 264 0.0 0.0 0.00 0.00 0.00 99 1013.1
20260509064147 11 264 0.0 0.0 0.00 0.00 0.00 99 1013.0
20260509063644 11 264 0.0 0.0 0.00 0.00 0.00 99 1013.1
20260509063140 11 264 0.0 0.0 0.00 0.00 0.00 99 1013.4
20260509062638 11 278 0.0 1.6 0.00 0.00 0.00 98 1013.2
20260509062135 11 9 0.0 0.0 0.00 0.00 0.00 98 1013.2
20260509061631 11 9 0.0 0.0 0.00 0.00 0.00 98 1013.3
20260509061129 11 9 0.0 0.0 0.00 0.00 0.00 98 1013.5
20260509060627 11 9 0.0 0.0 0.00 0.00 0.00 98 1013.5
20260509060122 12 9 0.0 0.0 0.00 0.00 0.00 98 1013.4
20260509055618 11 9 0.0 0.0 0.00 0.00 0.00 98 1013.8
20260509055114 11 9 0.0 0.0 0.00 0.00 0.00 98 1013.9
20260509054611 11 8 0.0 0.0 0.00 0.00 0.00 97 1014.1
20260509054109 11 21 0.0 0.0 0.00 0.00 0.00 97 1014.3
20260509053607 12 8 0.0 0.0 0.00 0.00 0.00 97 1014.5
20260509053104 12 8 0.0 0.0 0.00 0.00 0.00 97 1014.5
20260509052602 12 8 0.0 0.0 0.00 0.00 0.00 97 1014.4
20260509052059 12 8 0.0 0.0 0.00 0.00 0.00 97 1014.5
20260509051557 12 8 0.0 0.0 0.00 0.00 0.00 96 1014.5
20260509051054 12 8 0.0 0.0 0.00 0.00 0.00 96 1014.7
20260509050550 12 8 0.0 0.0 0.00 0.00 0.00 95 1014.3
20260509050047 12 8 0.0 0.0 0.00 0.00 0.00 95 1014.4
20260509045545 12 21 0.0 0.0 0.00 0.00 0.00 94 1014.3
20260509045041 13 8 0.0 0.0 0.00 0.00 0.00 94 1014.3
20260509044539 13 8 0.0 0.0 0.00 0.00 0.00 94 1014.1
20260509044036 13 8 0.0 0.0 0.00 0.00 0.00 94 1014.1
20260509043532 13 8 0.0 0.0 0.00 0.00 0.00 94 1014.0
20260509043028 13 8 0.0 0.0 0.00 0.00 0.00 93 1014.0
20260509042524 13 8 0.0 0.0 0.00 0.00 0.00 94 1014.1
20260509042021 13 8 0.0 0.0 0.00 0.00 0.00 93 1014.1
20260509041517 13 9 0.0 0.0 0.00 0.00 0.00 94 1014.4
20260509041015 13 9 0.0 0.0 0.00 0.00 0.00 93 1014.4
20260509040513 13 9 0.0 0.0 0.00 0.00 0.00 93 1014.6
20260509040005 13 11 0.0 0.0 0.00 0.00 0.00 93 1014.8
20260509035501 13 11 0.0 0.0 0.00 0.00 0.00 93 1014.8
20260509034957 13 24 0.0 0.0 0.00 0.00 0.00 93 1014.9
20260509034456 13 11 0.0 0.0 0.00 0.00 0.00 93 1014.9
20260509033952 13 11 0.0 0.0 0.00 0.00 0.00 93 1014.7
20260509033449 13 11 0.0 0.0 0.00 0.00 0.00 93 1014.7
20260509032946 13 11 0.0 0.0 0.00 0.00 0.00 93 1015.0
20260509032443 13 11 0.0 0.0 0.00 0.00 0.00 93 1015.1
20260509031941 13 11 0.0 0.0 0.00 0.00 0.00 93 1015.0
20260509031438 13 11 0.0 0.0 0.00 0.00 0.00 93 1015.1
20260509030935 13 11 0.0 0.0 0.00 0.00 0.00 93 1015.1
20260509030433 13 11 0.0 0.0 0.00 0.00 0.00 93 1015.1
20260509025930 13 11 0.0 0.0 0.00 0.00 0.00 92 1015.0
20260509025426 13 11 0.0 0.0 0.00 0.00 0.00 92 1015.1
20260509024921 13 11 0.0 0.0 0.00 0.00 0.00 92 1015.6
20260509024417 13 11 0.0 0.0 0.00 0.00 0.00 92 1015.5
20260509023914 13 11 0.0 0.0 0.00 0.00 0.00 92 1015.5
20260509023412 13 11 0.0 0.0 0.00 0.00 0.00 92 1015.4
20260509022908 13 11 0.0 0.0 0.00 0.00 0.00 92 1015.4
20260509022405 13 11 0.0 0.0 0.00 0.00 0.00 92 1015.5
20260509021903 13 11 0.0 0.0 0.00 0.00 0.00 91 1015.2
20260509021400 13 11 0.0 0.0 0.00 0.00 0.00 91 1015.2
20260509020857 14 11 0.0 0.0 0.00 0.00 0.00 90 1015.0
20260509020355 14 11 0.0 0.0 0.00 0.00 0.00 90 1015.1
20260509015852 14 11 0.0 0.0 0.00 0.00 0.00 90 1014.9
20260509015350 14 11 0.0 0.0 0.00 0.00 0.00 90 1014.9
20260509014847 14 11 0.0 0.0 0.00 0.00 0.00 89 1015.0
20260509014343 14 11 0.0 0.0 0.00 0.00 0.00 89 1014.9
20260509013840 14 11 0.0 0.0 0.00 0.00 0.00 89 1015.0
20260509013336 14 11 0.0 0.0 0.00 0.00 0.00 89 1015.0
20260509012832 15 11 0.0 0.0 0.00 0.00 0.00 89 1014.9
20260509012329 15 11 0.0 0.0 0.00 0.00 0.00 89 1014.7
20260509011827 15 11 0.0 0.0 0.00 0.00 0.00 89 1014.7
20260509011324 15 11 0.0 0.0 0.00 0.00 0.00 89 1014.5
20260509010822 15 11 0.0 0.0 0.00 0.00 0.00 88 1014.8
20260509010319 15 11 0.0 0.0 0.00 0.00 0.00 87 1014.8
20260509005816 15 11 0.0 0.0 0.00 0.00 0.00 87 1014.9
20260509005314 15 11 0.0 0.0 0.00 0.00 0.00 86 1014.9